Weather History for Mountain Home, ID

Change the Weather History Date:

Monday, February 4, 2013

  Actual Average Record
Temperature  
Mean Temperature 32 °F 33 °F  
Max Temperature 35 °F 41 °F 60 °F (1934)
Min Temperature 28 °F 23 °F -12 °F (1985)
Degree Days  
Heating Degree Days 33 32  
Month to date heating degree days 127 130  
Cooling Degree Days 0 0  
Month to date cooling degree days 0 0  
Moisture  
Dew Point 29 °F    
Average Humidity 97    
Maximum Humidity 100    
Minimum Humidity 86    
Precipitation  
Precipitation T in 0.03 in 0.69 in (1907)
Month to date precipitation T 0.11  
Sea Level Pressure  
Sea Level Pressure 30.22 in    
Wind  
Wind Speed 4 mph (ENE)    
Max Wind Speed 8 mph    
Max Gust Speed -    
Visibility 2 miles    
Events Fog    
T = Trace of Precipitation, MM = Missing Value Source: NWS Daily Summary

Daily Weather History Graph

Daily Weather History Graph

Search for Another Location

Airport:

Trip Planner

Search our weather history database for the weather conditions in past years. The results will help you decide how hot, cold, wet, or windy it might be!

Date:

Astronomy

Feb. 04, 2013 Rise Set
Actual Time 7:54 AM MST 6:00 PM MST
Civil Twilight 7:25 AM MST 6:30 PM MST
Nautical Twilight 6:51 AM MST 7:04 PM MST
Astronomical Twilight 6:18 AM MST 7:37 PM MST
Moon 2:37 AM MST (2/4) 12:25 PM MST (2/4)
Length of Visible Light 11h 05m
Length of Day
10h 05m
Last Quarter, 36% of the Moon is Illuminated
Feb 4
Last Quarter
Feb 10
New
Feb 17
First Quarter
Feb 25
Full
Mar 4
Last Quarter

Hourly Weather History & Observations

Time (MST) Temp. Windchill Dew Point Humidity Pressure Visibility Wind Dir Wind Speed Gust Speed Precip Events Conditions
12:03 AM 28.4 °F 22.2 °F 26.6 °F 93% 30.24 in 1.5 mi NNE 5.8 mph - N/A   Overcast
12:08 AM 28.4 °F 23.3 °F 26.6 °F 93% 30.24 in 1.0 mi North 4.6 mph - N/A   Overcast
12:13 AM 28.4 °F 24.6 °F 26.6 °F 93% 30.25 in 1.0 mi North 3.5 mph - N/A   Overcast
12:18 AM 28.4 °F 23.3 °F 26.6 °F 93% 30.25 in 1.0 mi North 4.6 mph - N/A   Mist
12:23 AM 28.4 °F 23.3 °F 26.6 °F 93% 30.25 in 0.8 mi NNE 4.6 mph - N/A   Mist
12:28 AM 28.4 °F 23.3 °F 26.6 °F 93% 30.24 in 0.8 mi NNE 4.6 mph - N/A   Mist
12:33 AM 28.4 °F 22.2 °F 26.6 °F 93% 30.24 in 0.8 mi NNE 5.8 mph - N/A   Mist
12:48 AM 28.4 °F 22.2 °F 26.6 °F 93% 30.24 in 0.8 mi NE 5.8 mph - N/A   Mist
12:58 AM 28.4 °F 23.3 °F 27.3 °F 96% 30.31 in 0.8 mi NE 4.6 mph - N/A   Mist
1:03 AM 28.4 °F 22.2 °F 26.6 °F 93% 30.24 in 0.8 mi NE 5.8 mph - N/A   Mist
1:08 AM 28.4 °F 22.2 °F 26.6 °F 93% 30.24 in 1.0 mi NNE 5.8 mph - N/A   Mist
1:13 AM 28.4 °F 22.2 °F 26.6 °F 93% 30.24 in 1.0 mi NNE 5.8 mph - N/A   Mist
1:23 AM 28.4 °F 23.3 °F 26.6 °F 93% 30.24 in 1.0 mi NNE 4.6 mph - N/A   Mist
1:38 AM 28.4 °F 23.3 °F 26.6 °F 93% 30.23 in 1.0 mi NE 4.6 mph - N/A   Mist
1:43 AM 28.4 °F 23.3 °F 26.6 °F 93% 30.23 in 0.8 mi NE 4.6 mph - N/A   Mist
1:53 AM 28.4 °F 23.3 °F 26.6 °F 93% 30.23 in 0.8 mi NE 4.6 mph - N/A   Mist
1:58 AM 28.2 °F 23.1 °F 27.3 °F 96% 30.30 in 1.0 mi NE 4.6 mph - N/A   Mist
2:03 AM 28.4 °F 23.3 °F 26.6 °F 93% 30.23 in 1.0 mi NE 4.6 mph - N/A   Mist
2:13 AM 28.4 °F 23.3 °F 28.4 °F 100% 30.22 in 1.0 mi ENE 4.6 mph - N/A   Mist
2:23 AM 28.4 °F 23.3 °F 28.4 °F 100% 30.23 in 1.5 mi NE 4.6 mph - N/A   Overcast
2:28 AM 28.4 °F 24.6 °F 28.4 °F 100% 30.23 in 1.5 mi NE 3.5 mph - N/A   Overcast
3:43 AM 28.4 °F 22.2 °F 28.4 °F 100% 30.22 in 0.8 mi ESE 5.8 mph - N/A   Mist
3:58 AM 28.2 °F 21.0 °F 27.7 °F 98% 30.29 in 0.8 mi East 6.9 mph - 0.00 in   Light Freezing Drizzle
4:08 AM 28.4 °F 22.2 °F 28.4 °F 100% 30.21 in 0.8 mi SE 5.8 mph - N/A   Mist
4:18 AM 28.4 °F 22.2 °F 28.4 °F 100% 30.21 in 1.0 mi ESE 5.8 mph - N/A   Mist
4:23 AM 28.4 °F 22.2 °F 28.4 °F 100% 30.21 in 1.2 mi East 5.8 mph - N/A   Overcast
4:28 AM 28.4 °F - 28.4 °F 100% 30.22 in 1.5 mi East 2.3 mph - N/A   Overcast
4:29 AM 28.4 °F - 28.4 °F 100% 30.22 in 1.5 mi East 2.3 mph - N/A   Overcast
4:34 AM 28.4 °F 22.2 °F 28.4 °F 100% 30.21 in 2.0 mi ENE 5.8 mph - N/A   Overcast
4:39 AM 28.4 °F 23.3 °F 28.4 °F 100% 30.21 in 1.8 mi East 4.6 mph - N/A   Overcast
4:44 AM 28.4 °F 20.4 °F 28.4 °F 100% 30.21 in 1.5 mi ENE 8.1 mph - N/A   Overcast
4:49 AM 28.4 °F 21.2 °F 28.4 °F 100% 30.21 in 1.2 mi ESE 6.9 mph - N/A   Overcast
4:58 AM 28.2 °F 22.0 °F 27.7 °F 98% 30.27 in 1.5 mi ESE 5.8 mph - 0.00 in   Overcast
5:08 AM 28.4 °F 23.3 °F 28.4 °F 100% 30.22 in 1.8 mi SSE 4.6 mph - N/A   Overcast
5:13 AM 28.4 °F 23.3 °F 28.4 °F 100% 30.21 in 1.5 mi East 4.6 mph - N/A   Overcast
5:18 AM 28.4 °F - 28.4 °F 100% 30.21 in 1.2 mi ENE 2.3 mph - N/A   Overcast
5:28 AM 28.4 °F - 28.4 °F 100% 30.22 in 1.5 mi ENE 2.3 mph - N/A   Overcast
5:38 AM 28.4 °F - 28.4 °F 100% 30.21 in 1.2 mi NE 1.2 mph - N/A   Overcast
5:48 AM 28.4 °F - 28.4 °F 100% 30.21 in 1.0 mi East 2.3 mph - N/A   Overcast
5:53 AM 28.4 °F - 28.4 °F 100% 30.20 in 0.8 mi East 2.3 mph - N/A   Mist
5:58 AM 28.8 °F - 28.2 °F 98% 30.28 in 0.5 mi Variable 2.3 mph - N/A Fog Light Freezing Fog
6:13 AM 28.4 °F 23.3 °F 28.4 °F 100% 30.21 in 0.8 mi NNW 4.6 mph - N/A   Mist
6:33 AM 28.4 °F 23.3 °F 28.4 °F 100% 30.20 in 0.5 mi ESE 4.6 mph - N/A Fog Light Freezing Fog
6:58 AM 28.8 °F - 28.2 °F 98% 30.28 in 0.5 mi SSE 2.3 mph - N/A Fog Light Freezing Fog
7:23 AM 28.4 °F - 28.4 °F 100% 30.20 in 1.0 mi Variable 2.3 mph - N/A   Overcast
7:43 AM 28.4 °F - 28.4 °F 100% 30.20 in 0.8 mi ESE 1.2 mph - N/A   Overcast
7:48 AM 28.4 °F - 28.4 °F 100% 30.20 in 0.5 mi East 2.3 mph - N/A Fog Fog
7:53 AM 28.4 °F - 28.4 °F 100% 30.20 in 0.5 mi Variable 1.2 mph - N/A Fog Light Freezing Fog
7:59 AM 28.4 °F - 28.4 °F 100% 30.28 in 0.5 mi SE 2.3 mph - N/A Fog Light Freezing Fog
8:09 AM 28.4 °F - 28.4 °F 100% 30.20 in 0.2 mi SSE 2.3 mph - N/A Fog Light Freezing Fog
8:24 AM 28.4 °F 23.3 °F 28.4 °F 100% 30.20 in 1.5 mi ESE 4.6 mph - N/A   Overcast
8:29 AM 28.4 °F 23.3 °F 28.4 °F 100% 30.20 in 0.8 mi SE 4.6 mph - N/A   Overcast
8:44 AM 28.4 °F 24.6 °F 28.4 °F 100% 30.20 in 1.0 mi ESE 3.5 mph - N/A   Overcast
8:58 AM 29.1 °F 24.1 °F 28.6 °F 98% 30.29 in 1.2 mi SE 4.6 mph - N/A   Overcast
9:18 AM 28.4 °F 22.2 °F 28.4 °F 100% 30.21 in 2.5 mi East 5.8 mph - N/A   Overcast
9:22 AM 28.4 °F 22.2 °F 28.4 °F 100% 30.21 in 1.0 mi East 5.8 mph - N/A   Overcast
9:33 AM 28.4 °F - 28.4 °F 100% 30.20 in 1.1 mi East 2.3 mph - N/A   Overcast
9:43 AM 28.4 °F 24.6 °F 28.4 °F 100% 30.20 in 1.0 mi ESE 3.5 mph - N/A   Overcast
9:58 AM 29.5 °F 23.4 °F 29.1 °F 99% 30.28 in 0.8 mi ESE 5.8 mph - N/A   Overcast
10:18 AM 30.2 °F 24.3 °F 30.2 °F 100% 30.20 in 0.8 mi ESE 5.8 mph - N/A   Overcast
10:28 AM 30.2 °F 25.4 °F 30.2 °F 100% 30.21 in 0.8 mi SE 4.6 mph - N/A   Overcast
10:43 AM 30.2 °F 24.3 °F 30.2 °F 100% 30.24 in 0.9 mi NE 5.8 mph - N/A   Overcast
10:48 AM 30.2 °F 26.7 °F 30.2 °F 100% 30.24 in 1.0 mi NE 3.5 mph - N/A   Overcast
10:58 AM 29.7 °F 26.1 °F 29.5 °F 99% 30.32 in 2.0 mi NNE 3.5 mph - N/A   Overcast
11:13 AM 30.2 °F - 30.2 °F 100% 30.23 in 2.0 mi NE 2.3 mph - N/A   Overcast
11:35 AM 30.2 °F - 30.2 °F 100% 30.23 in 2.0 mi East 1.2 mph - N/A   Overcast
11:56 AM 32.0 °F - 32.0 °F 100% 30.31 in 2.0 mi Variable 2.3 mph - N/A   Overcast
12:50 PM 32.0 °F - 32.0 °F 100% 30.22 in 10.0 mi ESE 2.3 mph - N/A   Overcast
12:56 PM 32.0 °F - 32.0 °F 100% 30.29 in 7.0 mi Calm Calm - N/A   Overcast
1:04 PM 32.0 °F - 32.0 °F 100% 30.21 in 10.0 mi Calm Calm - N/A   Overcast
1:19 PM 32.0 °F - 32.0 °F 100% 30.20 in 10.0 mi WNW 2.3 mph - N/A   Overcast
1:54 PM 32.0 °F 25.6 °F 32.0 °F 100% 30.19 in 10.0 mi Variable 6.9 mph - N/A   Overcast
1:59 PM 31.5 °F - 31.3 °F 99% 30.27 in 10.0 mi Variable 2.3 mph - N/A   Overcast
2:12 PM 32.0 °F - 32.0 °F 100% 30.17 in 6.0 mi SSW 2.3 mph - N/A   Overcast
2:35 PM 32.0 °F 27.5 °F 32.0 °F 100% 30.16 in 3.0 mi South 4.6 mph - N/A   Overcast
2:58 PM 32.7 °F - 32.4 °F 99% 30.22 in 3.0 mi Variable 1.2 mph - N/A   Overcast
3:36 PM 33.8 °F - 32.0 °F 93% 30.12 in 4.0 mi NNE 1.2 mph - N/A   Mostly Cloudy
3:58 PM 34.3 °F 31.4 °F 33.6 °F 97% 30.20 in 5.0 mi Variable 3.5 mph - N/A   Mostly Cloudy
4:16 PM 35.6 °F 31.7 °F 32.0 °F 87% 30.12 in 4.0 mi North 4.6 mph - N/A   Scattered Clouds
4:58 PM 34.5 °F 29.4 °F 30.7 °F 86% 30.20 in 4.0 mi NW 5.8 mph - N/A   Mostly Cloudy
5:26 PM 32.0 °F 26.4 °F 30.2 °F 93% 30.13 in 3.0 mi WNW 5.8 mph - N/A   Overcast
5:38 PM 32.0 °F 25.6 °F 32.0 °F 100% 30.13 in 10.0 mi WNW 6.9 mph - N/A   Overcast
5:58 PM 32.9 °F 27.5 °F 30.4 °F 90% 30.19 in 3.0 mi WNW 5.8 mph - N/A   Overcast
6:38 PM 32.0 °F 26.4 °F 30.2 °F 93% 30.12 in 3.0 mi West 5.8 mph - N/A   Overcast
6:58 PM 31.1 °F 25.4 °F 29.1 °F 92% 30.19 in 3.0 mi West 5.8 mph - N/A   Overcast
7:58 PM 30.7 °F 26.0 °F 29.3 °F 94% 30.19 in 2.5 mi West 4.6 mph - N/A   Overcast
8:17 PM 32.0 °F 28.7 °F 30.2 °F 93% 30.12 in 2.5 mi West 3.5 mph - N/A   Overcast
8:58 PM 31.3 °F - 30.2 °F 96% 30.19 in 2.0 mi WNW 1.2 mph - N/A   Overcast
9:58 PM 31.1 °F - 30.4 °F 97% 30.19 in 2.0 mi SSW 1.2 mph - N/A   Overcast
10:58 PM 30.9 °F - 30.4 °F 98% 30.17 in 2.0 mi South 2.3 mph - N/A   Overcast
11:44 PM 32.0 °F - 30.2 °F 93% 30.09 in 7.0 mi ESE 2.3 mph - N/A   Overcast
11:58 PM 30.7 °F - 30.2 °F 98% 30.17 in 6.0 mi Calm Calm - N/A   Overcast